Other Public Products
Issued by NWS Grand Forks, ND

Home | Current Version | Previous Version | Text Only | Print | Product List | Glossary On
Versions: 1 2 3 4 5 6 7 8 9 10 11 12 13 14 15 16 17 18 19 20 21 22 23 24 25 26 27 28 29 30 31 32 33 34 35 36 37 38 39 40 41 42 43 44 45 46 47 48 49 50
000
FPUS83 KFGF 261931
OPUFGF
PRAIRIE TO PINES WEATHER ROUNDUP
NATIONAL WEATHER SERVICE EASTERN NORTH DAKOTA/GRAND FORKS ND
200 PM CDT THU APR 26 2018

 **SATELLITE DATA USED TO AUGMENT SKY COVER AT AUTOMATED STATIONS**
 *****  WEATHER ACROSS EASTERN NORTH DAKOTA  *****

CITY           SKY/WX    TMP DP  RH WIND       PRES   REMARKS
GRAND FORKS    FAIR      56  32  40 N24G31    30.03F
GRND FORKS AFB FAIR      58  28  32 N16       30.03F
GRND FORKS NWS   N/A     58  32  37 N12       30.00F
BUXTON           N/A     57  38  48 NW16G29     N/A
DEVILS LAKE    PTSUNNY   57  28  33 NW13      30.04F
FARGO          FAIR      57  29  34 N24G31    30.04F
WAHPETON ARPT  FAIR      55  27  33 NW30G36   30.03F
$$

 *****  WEATHER ACROSS CENTRAL AND WESTERN NORTH DAKOTA  *****

CITY           SKY/WX    TMP DP  RH WIND       PRES   REMARKS
JAMESTOWN      FAIR      60  27  28 NW16G28   30.07F
BISMARCK       FAIR      64  23  21 NW17G26   30.11F
MINOT          FAIR      66  23  19 W23G30    30.05F
MINOT AFB      FAIR      64  24  22 W18G30    30.03F
GARRISON         N/A     62  24  23 NW24G37   30.09F
WILLISTON      FAIR      65  27  23 W15G24    30.10F
DICKINSON      FAIR      63  27  25 W17G25    30.12F
HETTINGER      FAIR      60  25  26 NW12G25   30.17F
$$

 *****  OTHER OBSERVATIONS NORTHEAST NORTH DAKOTA  *****

CITY           SKY/WX    TMP DP  RH WIND       PRES   REMARKS
WALHALLA       FAIR      57  28  33 N14G21    30.00F
LANGDON        FAIR      59  28  31 NW20      30.00F
CAVALIER         N/A     57  30  35 N8G17     30.01F
GRAFTON        FAIR      57  30  35 N12G18    30.04F
CANDO          FAIR      63  27  25 W16G28    30.03F
FORT TOTTEN      N/A     58  28  31 N6        29.95S
ROLLA          FAIR      57  27  30 W14G24    30.00F
RUGBY          FAIR      61  25  25 W21G30    30.02F
 ***** THE ABOVE OBSERVATIONS ARE NON NWS ARE NOT QUALITY
        CONTROLLED AND MAY MIS-REPORT RAIN FOR SNOW...
$$

 *****  OTHER OBSERVATIONS SOUTHEAST NORTH DAKOTA *****

CITY           SKY/WX    TMP DP  RH WIND       PRES   REMARKS
COOPERSTOWN    FAIR      57  32  38 NW20G25   30.05F
VALLEY CITY    FAIR      57  28  33 N18G26    30.07F
OAKES            N/A     59  30  33 N22G30    30.07F
GWINNER          N/A     59  30  33 NW24G32   30.06F
SHEYENNE NWR     N/A     58  29  33 N15       29.95S
BUFFALO          N/A     56  28  34 N21         N/A
WYNDMERE       NOT AVBL
 ***** THE ABOVE OBSERVATIONS ARE NON NWS ARE NOT QUALITY
       CONTROLLED AND MAY MIS-REPORT RAIN FOR SNOW...
$$

  *****  WEATHER ACROSS NORTHERN MINNESOTA  *****

CITY           SKY/WX    TMP DP  RH WIND       PRES   REMARKS
FLAG ISLAND    FAIR      46  27  46 N12       29.95F
WARROAD        FAIR      54  28  37 NW14G21   29.98S
ROSEAU         FAIR      52  28  40 NW13G22   29.98F
HALLOCK        FAIR      57  21  24 N21G28    30.00F
THF RVR FALLS  NOT AVBL
HALSTAD        NOT AVBL
FOSSTON        FAIR      54  28  37 NW18      30.00F
BAUDETTE       FAIR      52  28  39 NW16G23   29.96F
WASKISH        PTSUNNY   54  28  37 NW9       29.94F
CROOKSTON      FAIR      55  28  35 N22G28    30.03S
$$
  *****  WEATHER ACROSS CENTRAL AND WEST MINNESOTA  *****

CITY           SKY/WX    TMP DP  RH WIND       PRES   REMARKS
BEMIDJI        FAIR      54  26  34 N15G23    29.94F
PARK RAPIDS    FAIR      57  27  31 NW21G28   29.94F
WADENA         FAIR      54  32  43 N16G23    29.95F
DETROIT LAKES  FAIR      52  28  40 N16G24    30.01S
MOORHEAD       FAIR      55  25  30 N23G30    30.04F
FERGUS FALLS   FAIR      55  28  35 N18G37    29.98S
ELBOW LAKE     FAIR      52  29  40 NW20G30   30.01S
MORRIS MN      FAIR      55  30  38 N31G38    30.00S
STAPLES        FAIR      57  25  28 N15G26    29.94S
WHEATON        FAIR      55  27  33 NW22G37   30.05S
$$
  *****  WEATHER ELSEWHERE ACROSS MINNESOTA  *****

CITY           SKY/WX    TMP DP  RH WIND       PRES   REMARKS
DULUTH         FAIR      55  35  47 N15G21    29.85R
INTRNTL FALLS  FAIR      53  30  41 NW15G21   29.91F
ELY            PTSUNNY   48  27  43 NW12G17   29.88S
CLOQUET        FAIR      57  27  30 NW18G28   29.86S
BRAINERD       FAIR      57  30  35 N20G29    29.93R
HIBBING        FAIR      51  29  42 NW13G24   29.89R
ALEXANDRIA     FAIR      57  27  31 NW16G30   29.98R
SAINT CLOUD    FAIR      60  29  30 N15G26    29.89S
MINNEAPOLIS    FAIR      65  38  36 NW12G23   29.86S
$$

  *****  WEATHER ACROSS SOUTH DAKOTA  *****

CITY           SKY/WX    TMP DP  RH WIND       PRES   REMARKS
SIOUX FALLS    FAIR      60  31  33 N20G37    30.04R
BROOKINGS      FAIR      55  30  38 N21G31    30.03F
WATERTOWN      FAIR      56  28  34 N24G37    30.05S
HURON          FAIR      60  29  30 N25G37    30.09F
SISSETON         N/A     59  30  33 N30G37    30.03F
ABERDEEN       FAIR      63  29  27 N18G26    30.09F
MITCHELL       FAIR      61  31  32 N21G33    30.10S
PIERRE         FAIR      62  26  25 NW23G30   30.15F
MOBRIDGE       FAIR      64  31  28 W16G22    30.10F
RAPID CITY     FAIR      60  30  32 N17G28    30.20F
$$

  *****  SOME WEATHER IN NEARBY STATES *****

CITY           SKY/WX    TMP DP  RH WIND       PRES   REMARKS
GLASGOW MT     FAIR      66  26  22 W14       30.14F
GREAT FALLS MT FAIR      68  28  22 SW9       30.16F
CHEYENNE WY    PTSUNNY   49  24  37 VRB3      30.30S
SCOTTSBLUFF NE PTSUNNY   59  29  31 NW18G29   30.25S
OMAHA NE       PTSUNNY   68  41  37 W20G28    29.95F
DES MOINES IA  PTSUNNY   70  29  21 W14G20    29.91F
DAVENPORT IA   FAIR      67  28  23 VRB6      29.93F
CHICAGO IL     PTSUNNY   64  28  25 CALM      29.90F
EAU CLAIRE WI  FAIR      67  34  29 W17G24    29.79F
LA CROSSE WI   FAIR      69  33  26 SW13G22   29.83F
$$

  *****  SOME NATIONAL WEATHER *****

CITY           SKY/WX    TMP DP  RH WIND       PRES   REMARKS
LA GUARDIA NY  FAIR      67  38  34 W13       29.75R
RALEIGH NC     PTSUNNY   74  56  53 SW9       29.86F
ATLANTA GA     LGT RAIN  57  56  96 E9        29.85F FOG
NEW ORLEANS LA FAIR      72  55  55 N9        29.90F
OKLAHOMA CITY  FAIR      65  41  41 N8        30.00F
ALBUQUERQUE NM FAIR      77  15   9 NW20G30   30.06F
SALT LAKE CITY FAIR      71  29  21 NW8       30.17F
LOS ANGELES CA FAIR      64  51  62 W10       30.05S
BOISE ID       FAIR      76  31  19 SE13G23   30.13F
SEATTLE WA     FAIR      73  45  36 N9        30.01F
$$

*** WEATHER ACROSS MANITOBA...SASKATCHEWAN AND ONTARIO ***
                ***ONTARIO***

CITY           SKY/WX    TMP DP  RH WIND       PRES   REMARKS
GERALDTON      LGT SNOW  36  32  87 N15G21    29.80R FOG
THUNDER BAY    PTSUNNY   46  36  66 N13G20    29.83R
SIOUX LOOKOUT  PTSUNNY   41  28  60 N9G20     29.92R
TORONTO        MOSUNNY   57  34  41 W9G17     29.83F
BIG TROUT LK   SUNNY     32  12  43 VRB12     29.96S WCI  23
PICKLE LAKE    FLURRIES  30  25  80 NW5       29.92R
DRYDEN         PTSUNNY   45  27  49 N8G17     29.92S
KENORA         MOSUNNY   46  23  39 NW12G20   29.95S
$$
                *** MANITOBA***

CITY           SKY/WX    TMP DP  RH WIND       PRES   REMARKS
BRANDON        PTSUNNY   63  30  29 W12G22    29.95F
DAUPHIN        MOSUNNY   63  27  25 W26G37    29.84F
ISLAND LAKE    MOSUNNY   34  23  64 E7        29.95F
PILOT MOUND      N/A     57  27  30 NW16G24     N/A
THE PAS        MOSUNNY   55  30  38 NW9       29.75F
THOMPSON       FLURRIES  34  19  55 S6        29.85F
WINNIPEG       MOSUNNY   54  27  35 NW15      30.00F
LYNN LAKE      LGT RAIN  34  34 100 E9        29.76R
CHURCHILL      MOSUNNY   18  10  73 N8        30.02S WCI   7
GILLAM         CLOUDY    28  14  54 NW6       29.94F WCI  22
$$
                ***SASKATCHEWAN***

CITY           SKY/WX    TMP DP  RH WIND       PRES   REMARKS
ESTEVAN        MOSUNNY   66  27  22 W23G31    30.02F
KINDERSLEY     MOSUNNY   64  27  24 NW18G28   30.04F
LLOYDMINSTER   MOSUNNY   64  30  27 N13G22    30.03S
PRINCE ALBERT  MOSUNNY   63  30  29 NW20G30   29.91F
REGINA         SUNNY     66  25  20 W24G36    29.99F
YORKTON        MOSUNNY   64  30  27 W30G38    29.87F



USA.gov is the U.S. government's official web portal to all federal, state and local government web resources and services.